Wind_Speed
74 75 73 71 69 68 67 67 69 70 72 73 72 71 70 68 68 66 64 62 59 57 52 47 59 81 83 80 93 101 103 104 104 106 109 108 109 105 107 105 103 104 97
77 75 74 71 68 68 67 69 70 70 73 71 71 68 66 67 67 65 63 64 66 64 61 61 58 55 69 92 93 92 91 94 91 96 108 109 110 112 107 111 108 109 103
75 73 72 71 70 68 69 69 71 72 67 66 67 64 64 66 67 67 66 66 66 65 65 64 63 64 64 67 73 79 84 87 91 92 97 104 106 106 106 103 99 97 98
68 70 70 70 69 70 71 70 70 65 63 63 63 63 64 66 66 65 68 67 64 61 61 62 63 66 69 74 77 79 80 79 78 79 82 86 92 99 98 90 87 91 88
69 65 64 65 66 68 70 67 60 59 59 59 62 63 64 65 63 64 66 65 60 58 58 59 61 63 65 68 72 76 80 81 81 81 80 75 73 72 70 68 67 66 57
59 62 64 65 63 61 59 58 57 56 58 59 59 61 63 62 62 65 62 59 58 59 63 65 68 69 70 71 74 76 78 78 76 77 79 75 72 71 70 68 66 60 50
51 51 52 54 54 56 55 55 55 58 59 58 60 60 61 60 60 59 55 55 59 63 66 71 75 78 78 73 73 75 80 82 79 76 73 72 73 72 69 64 59 57 53
52 52 52 53 53 54 56 58 58 57 58 59 61 60 55 55 57 51 51 55 62 68 70 73 74 72 69 64 64 66 73 72 78 81 75 71 72 73 66 62 58 55 51
58 57 57 57 57 56 55 55 57 60 63 66 60 55 54 50 46 48 51 58 65 70 72 63 56 59 63 56 55 52 56 58 58 64 76 78 74 75 70 65 58 56 53
57 57 56 56 57 56 58 60 63 53 46 40 41 41 40 41 43 46 52 58 60 59 59 56 55 56 56 54 49 47 44 42 46 48 56 69 78 79 74 69 66 60 55
61 61 61 61 60 61 59 44 35 29 25 29 29 32 34 38 42 48 55 56 56 53 51 53 56 55 48 45 42 41 36 31 31 36 43 54 67 78 76 69 63 65 60
56 57 56 52 45 37 30 25 22 21 24 25 28 30 33 37 41 46 53 53 53 51 50 52 53 49 44 39 37 33 29 26 23 26 33 42 55 62 71 70 67 68 67
37 33 30 29 25 22 22 22 22 23 22 27 29 30 32 36 40 42 48 50 50 46 49 49 49 46 44 38 32 27 24 21 17 18 26 34 45 52 67 72 70 71 69
32 27 24 21 21 20 22 23 26 23 25 28 30 30 32 36 40 41 46 48 48 41 45 46 46 43 40 37 35 28 21 16 13 14 19 27 37 45 60 72 69 70 70
27 24 23 23 25 23 24 27 28 23 27 28 30 32 31 35 37 39 44 48 47 34 40 39 43 41 35 33 30 27 22 13 6 7 15 24 29 41 55 72 72 68 65
26 26 26 27 28 27 31 30 26 25 29 30 32 32 33 35 37 38 39 45 44 37 32 39 40 39 30 26 27 25 22 13 3 7 14 24 30 42 56 73 69 64 60
28 28 29 31 30 34 31 31 28 29 31 30 31 31 32 33 35 37 37 38 43 42 30 31 27 32 26 24 22 18 19 13 2 10 17 25 33 43 54 73 72 68 64
29 30 32 33 35 32 30 30 29 31 33 34 33 35 36 38 37 38 35 35 38 37 31 26 24 23 22 23 19 13 13 6 2 8 18 25 34 46 59 71 67 68 65
29 34 37 37 36 32 30 29 30 32 36 38 38 39 41 42 42 43 40 34 34 36 30 21 20 18 23 19 18 15 8 6 3 10 19 29 39 53 68 65 64 65 60
29 34 34 30 28 29 29 31 35 36 38 40 41 44 45 46 47 48 45 39 34 30 33 23 19 14 14 11 18 18 16 6 6 11 23 37 50 63 68 61 58 60 53
28 31 32 31 31 29 29 32 32 34 36 39 41 43 44 45 45 44 43 41 34 29 29 27 16 14 9 10 13 15 19 16 13 13 26 45 54 61 58 60 56 49 46
31 31 30 30 31 33 34 31 32 35 37 39 42 42 42 43 44 44 44 42 38 31 25 26 18 11 11 14 10 7 16 13 15 19 25 41 53 56 55 53 52 47 50
32 33 34 34 32 34 36 38 40 40 42 43 42 43 43 42 41 42 40 38 37 35 26 23 21 12 14 20 19 16 12 8 10 27 32 34 43 52 56 58 55 52 53
33 33 33 35 37 39 41 43 44 47 46 46 47 46 45 45 45 43 41 39 35 33 31 24 22 19 16 26 28 26 19 13 13 19 31 40 43 47 47 46 50 47 45
32 33 35 39 43 45 47 48 51 51 51 51 52 52 51 50 49 47 44 41 39 35 33 31 27 25 22 32 33 31 30 21 21 21 22 27 36 41 44 44 45 42 43
34 39 42 46 49 53 57 58 56 57 59 60 60 59 57 55 50 48 46 43 41 39 38 35 34 32 31 30 40 38 38 33 28 30 28 25 32 36 38 43 44 43 45
Wind_Direction
260 262 264 264 264 264 264 267 271 275 278 281 283 286 287 290 294 292 287 286 288 290 288 285 270 256 261 255 247 245 248 251 250 244 248 249 249 254 258 262 262 261 262
260 262 264 265 265 264 266 269 271 274 276 278 281 286 287 290 293 290 291 289 284 280 279 281 280 275 266 257 261 262 262 257 252 251 249 250 251 253 257 258 259 263 265
258 260 261 261 262 263 265 268 272 274 274 278 281 283 286 288 290 287 289 291 289 285 281 278 275 273 269 266 264 263 263 261 259 250 251 250 253 256 258 261 261 264 265
255 257 260 262 263 264 267 269 272 272 274 278 280 282 283 285 286 286 289 291 288 284 280 277 273 269 266 263 263 263 262 262 261 258 258 258 256 256 258 260 262 262 262
255 256 259 262 263 265 267 269 270 273 276 277 280 281 283 285 286 287 292 291 290 290 289 289 285 281 276 271 266 263 261 259 259 258 256 255 257 258 255 255 258 257 258
258 258 258 260 262 263 264 268 270 274 275 277 278 280 283 284 286 292 293 293 293 295 296 294 292 289 284 280 275 269 265 260 254 251 250 250 249 251 252 251 251 254 251
260 260 260 261 263 264 266 268 270 274 275 276 279 280 282 285 291 292 293 296 298 298 297 298 297 295 289 282 273 267 261 257 254 250 245 244 243 243 242 243 241 243 246
260 262 263 265 265 267 268 272 275 275 275 277 278 279 280 286 291 292 295 297 299 301 303 300 297 293 291 288 278 267 267 262 253 248 242 238 235 238 236 236 237 234 241
263 265 266 268 270 271 272 273 274 276 276 275 273 272 280 285 289 293 296 300 308 307 304 304 305 303 301 299 292 280 269 267 261 250 245 238 230 231 231 232 232 231 233
265 266 267 269 271 273 274 277 278 275 269 263 264 271 278 285 289 296 300 308 311 316 319 319 319 314 308 304 299 290 281 271 262 253 244 236 233 229 226 223 224 222 225
263 265 267 270 272 273 275 272 264 255 252 256 265 274 279 284 291 302 309 316 321 321 317 327 326 323 316 308 303 298 292 283 269 253 244 234 229 226 221 216 215 213 219
269 267 266 267 265 263 257 242 234 235 247 262 268 273 280 287 299 307 317 323 326 322 324 335 329 328 326 321 312 305 297 289 272 252 240 230 223 220 214 208 203 206 211
268 264 261 256 248 237 223 223 225 236 253 261 269 275 283 293 302 312 323 325 329 324 329 337 333 337 335 331 322 311 303 298 277 242 230 225 214 212 207 202 199 200 206
262 257 243 230 228 220 216 219 232 238 254 262 272 280 289 301 306 317 326 328 335 333 330 340 340 342 338 339 339 333 321 307 282 246 218 215 210 206 199 198 195 195 200
247 233 226 221 220 214 222 231 234 243 254 264 273 282 290 301 306 318 329 332 337 325 327 339 340 342 339 343 345 343 339 329 323 232 198 193 197 199 194 192 190 190 192
226 222 221 216 214 225 228 237 238 252 256 267 271 279 291 297 307 317 324 327 333 333 322 329 334 338 339 338 346 347 347 344 25 164 178 182 177 189 189 185 182 188 185
216 220 215 212 223 230 239 245 242 248 254 266 275 281 289 295 302 308 317 323 328 337 329 324 329 341 343 334 338 353 359 338 337 148 168 177 175 181 182 180 179 182 179
218 218 211 220 228 235 243 249 255 256 260 265 269 280 289 293 299 303 309 317 322 332 342 327 329 335 343 340 349 343 355 3 158 162 162 176 177 173 174 175 177 175 175
222 215 217 224 231 238 247 253 259 259 259 265 272 277 285 291 297 298 302 306 315 323 336 330 318 330 340 356 2 6 1 26 121 164 159 165 169 169 168 171 172 173 176
228 224 229 238 244 252 254 261 266 269 266 267 272 278 283 288 291 293 294 298 302 313 320 338 304 311 331 38 49 46 50 78 103 150 157 159 161 162 165 173 174 174 183
227 228 233 239 251 256 264 272 273 273 274 274 275 278 282 285 288 290 292 292 292 299 308 320 320 288 289 111 84 67 64 79 113 130 158 160 164 168 178 173 176 184 190
229 232 238 244 253 260 267 268 273 276 279 282 283 285 285 287 288 289 289 288 286 282 290 299 312 285 255 173 135 127 92 76 116 135 148 167 166 170 174 179 182 188 191
235 237 244 249 253 261 266 272 275 275 279 281 283 287 288 288 288 287 288 286 281 277 272 278 289 279 225 194 170 152 120 124 132 145 145 159 169 174 180 185 189 192 197
241 244 247 252 258 263 270 276 276 278 279 280 282 284 285 286 286 285 284 283 278 269 267 256 260 264 227 202 189 169 174 179 181 171 167 165 168 171 177 186 191 198 201
243 247 252 259 263 268 271 276 279 280 281 281 282 282 282 282 281 279 275 274 273 268 259 252 240 245 235 209 199 196 182 191 191 171 171 177 185 182 184 183 188 191 193
258 262 264 267 269 272 274 277 278 280 281 283 283 283 282 280 276 273 270 266 264 263 260 248 238 229 232 223 213 210 202 194 194 191 187 193 183 183 192 190 193 196 191
Height
10655 10658 10661 10664 10667 10670 10672 10672 10672 10669 10665 10661 10658 10654 10649 10643 10638 10632 10627 10622 10616 10611 10606 10603 10599 10600 10601 10605 10608 10611 10613 10617 10628 10638 10636 10641 10644 10645 10645 10648 10657 10663 10668
10640 10643 10645 10648 10651 10651 10653 10655 10655 10654 10650 10648 10643 10638 10633 10628 10622 10617 10611 10606 10602 10598 10594 10589 10585 10582 10581 10584 10585 10587 10589 10592 10598 10605 10611 10610 10620 10624 10627 10626 10632 10638 10642
10625 10628 10629 10632 10633 10636 10637 10637 10638 10637 10635 10631 10626 10623 10618 10613 10607 10601 10596 10590 10584 10580 10576 10574 10570 10566 10564 10563 10562 10562 10561 10563 10569 10576 10581 10587 10590 10595 10603 10604 10609 10616 10617
10607 10610 10613 10617 10618 10617 10618 10619 10620 10619 10618 10615 10611 10609 10604 10598 10593 10587 10581 10575 10569 10564 10559 10555 10554 10552 10550 10546 10543 10540 10538 10540 10543 10550 10556 10559 10564 10571 10579 10583 10585 10595 10595
10590 10594 10597 10599 10599 10601 10601 10602 10603 10603 10601 10599 10596 10592 10587 10582 10578 10572 10567 10559 10553 10546 10541 10537 10532 10528 10524 10520 10518 10514 10513 10515 10518 10523 10530 10538 10540 10546 10554 10557 10564 10573 10580
10571 10575 10579 10580 10583 10583 10584 10587 10587 10587 10586 10585 10581 10576 10570 10567 10562 10558 10553 10544 10536 10531 10524 10516 10509 10503 10498 10494 10489 10485 10483 10485 10490 10495 10502 10513 10521 10526 10532 10540 10545 10552 10565
10557 10560 10562 10564 10567 10567 10570 10571 10572 10572 10570 10568 10564 10559 10555 10553 10550 10544 10538 10531 10522 10513 10506 10497 10485 10473 10465 10459 10452 10448 10446 10448 10455 10462 10476 10487 10496 10502 10510 10522 10530 10536 10549
10542 10546 10548 10550 10552 10554 10555 10556 10556 10554 10553 10551 10547 10545 10541 10541 10536 10531 10525 10518 10508 10496 10486 10474 10463 10447 10435 10427 10418 10415 10413 10414 10421 10430 10444 10456 10469 10474 10490 10504 10515 10525 10534
10528 10531 10533 10535 10536 10538 10538 10539 10538 10537 10536 10533 10531 10530 10531 10528 10524 10519 10514 10504 10493 10478 10465 10449 10438 10426 10412 10404 10396 10390 10388 10389 10393 10400 10411 10425 10439 10450 10469 10484 10500 10512 10523
10513 10515 10517 10519 10520 10521 10522 10522 10521 10518 10516 10516 10518 10520 10520 10516 10513 10509 10501 10494 10481 10462 10445 10432 10420 10409 10395 10384 10377 10369 10367 10369 10370 10374 10381 10392 10408 10425 10441 10464 10480 10497 10511
10499 10500 10502 10503 10504 10504 10506 10505 10506 10505 10505 10506 10511 10511 10510 10507 10502 10496 10487 10478 10465 10450 10438 10424 10409 10397 10384 10372 10364 10356 10351 10351 10351 10354 10359 10367 10380 10395 10418 10444 10464 10483 10497
10480 10482 10484 10486 10487 10489 10492 10494 10495 10497 10498 10500 10502 10502 10501 10498 10493 10487 10477 10464 10453 10441 10427 10414 10401 10389 10374 10363 10354 10346 10340 10337 10338 10339 10342 10348 10360 10374 10398 10423 10445 10466 10479
10466 10469 10471 10473 10476 10479 10482 10485 10488 10489 10491 10492 10493 10493 10492 10488 10483 10478 10468 10456 10444 10433 10421 10410 10396 10382 10370 10359 10349 10341 10336 10331 10330 10330 10332 10338 10348 10360 10380 10403 10426 10444 10463
10456 10459 10461 10465 10469 10472 10476 10479 10480 10482 10484 10485 10484 10485 10483 10478 10472 10468 10460 10449 10436 10424 10416 10407 10395 10383 10370 10359 10349 10340 10333 10329 10327 10328 10329 10334 10343 10355 10370 10393 10414 10434 10453
10447 10451 10455 10459 10462 10466 10470 10471 10473 10475 10477 10478 10477 10476 10475 10471 10464 10459 10453 10442 10435 10426 10415 10406 10395 10384 10373 10362 10354 10343 10335 10330 10327 10328 10329 10332 10341 10353 10366 10385 10406 10428 10448
10439 10444 10448 10452 10456 10459 10461 10464 10467 10468 10469 10470 10469 10468 10466 10463 10457 10453 10448 10441 10433 10423 10415 10406 10396 10386 10376 10366 10357 10349 10341 10335 10331 10331 10332 10335 10340 10352 10364 10383 10407 10425 10442
10433 10437 10441 10445 10448 10451 10455 10458 10459 10460 10461 10462 10460 10459 10458 10456 10452 10448 10444 10437 10429 10420 10412 10407 10399 10391 10380 10370 10363 10354 10348 10342 10337 10336 10337 10339 10344 10353 10367 10384 10403 10422 10439
10427 10432 10436 10439 10441 10445 10449 10451 10452 10453 10453 10453 10453 10450 10449 10447 10444 10441 10438 10434 10427 10421 10413 10406 10400 10394 10385 10376 10367 10360 10354 10348 10345 10343 10343 10347 10351 10359 10374 10391 10408 10425 10441
10422 10425 10428 10431 10434 10439 10441 10443 10443 10444 10445 10445 10444 10442 10439 10438 10436 10432 10430 10428 10425 10418 10413 10407 10401 10395 10389 10382 10373 10365 10361 10357 10355 10352 10351 10356 10363 10373 10386 10402 10416 10429 10442
10416 10419 10422 10426 10428 10431 10433 10434 10434 10434 10434 10435 10435 10433 10430 10428 10426 10423 10420 10420 10419 10417 10409 10406 10401 10398 10393 10387 10382 10375 10368 10365 10363 10363 10364 10368 10375 10386 10396 10409 10422 10434 10445
10410 10414 10416 10419 10421 10422 10424 10424 10423 10423 10422 10422 10423 10423 10421 10418 10416 10414 10412 10410 10410 10412 10408 10405 10400 10397 10396 10391 10388 10383 10378 10373 10371 10371 10374 10378 10386 10392 10403 10415 10427 10441 10450
10404 10407 10409 10411 10412 10413 10414 10414 10414 10413 10412 10411 10410 10410 10410 10406 10403 10401 10401 10400 10398 10402 10404 10400 10398 10395 10396 10393 10391 10389 10386 10383 10380 10379 10382 10388 10391 10401 10410 10421 10431 10439 10447
10398 10400 10401 10402 10403 10404 10404 10403 10403 10402 10401 10400 10398 10396 10396 10394 10392 10389 10388 10389 10388 10388 10395 10395 10394 10391 10392 10394 10392 10394 10392 10391 10389 10387 10389 10393 10397 10403 10411 10418 10427 10435 10442
10390 10392 10393 10393 10393 10392 10392 10391 10390 10389 10388 10387 10386 10384 10383 10381 10380 10378 10376 10375 10377 10377 10380 10387 10387 10386 10387 10390 10391 10392 10394 10394 10395 10394 10395 10396 10400 10404 10411 10418 10424 10432 10439
10382 10382 10382 10382 10381 10380 10378 10377 10375 10373 10371 10371 10370 10369 10368 10367 10365 10364 10364 10363 10363 10365 10367 10373 10379 10380 10381 10384 10387 10390 10391 10393 10396 10400 10402 10402 10406 10409 10413 10417 10423 10431 10436
10373 10372 10371 10370 10368 10365 10363 10360 10358 10356 10354 10352 10350 10349 10348 10347 10347 10347 10346 10348 10350 10351 10353 10356 10364 10370 10372 10374 10378 10384 10387 10387 10391 10397 10401 10404 10405 10408 10412 10416 10423 10430 10434